Overview Statistics Trail Chart Weather Telemetry Raw packets
 

This is the latest recevied weather packets stored in our database for station/object W0CHP-13. If no packets are shown the sender has not sent any weather packets the latest 10 day(s).

<< 55 56 57 58 >>
Time Temp. Humidity Pressure Rain* Wind** Luminosity Snow
1787846598 23.89° C 63% 1017.2 hPa 0 mm - 563 W/m² -
1787845997 23.33° C 65% 1016.9 hPa 0 mm - 544 W/m² -
1787845397 23.33° C 64% 1017.1 hPa 0 mm - 524 W/m² -
1787844795 22.78° C 66% 1017.2 hPa 0 mm - 498 W/m² -
1787844195 22.22° C 68% 1016.9 hPa 0 mm - 475 W/m² -
1787843598 22.22° C 69% 1016.8 hPa 0 mm - 450 W/m² -
1787842995 21.67° C 71% 1016.8 hPa 0 mm - 422 W/m² -
1787842397 21.11° C 72% 1017.1 hPa 0 mm - 399 W/m² -
1787841796 20.56° C 74% 1016.8 hPa 0 mm - 372 W/m² -
1787841198 20.56° C 76% 1016.8 hPa 0 mm - 343 W/m² -
1787840597 20° C 76% 1016.5 hPa 0 mm - 316 W/m² -
1787839998 19.44° C 79% 1016.8 hPa 0 mm - 286 W/m² -
1787839397 18.89° C 81% 1016.8 hPa 0 mm - 260 W/m² -
1787838797 17.78° C 84% 1016.8 hPa 0 mm - 233 W/m² -
1787838196 17.22° C 86% 1016.8 hPa 0 mm - 139 W/m² -
1787837597 17.22° C 85% 1016.7 hPa 0 mm - 68 W/m² -
1787836996 16.67° C 88% 1016.8 hPa 0 mm - 120 W/m² -
1787836399 16.67° C 87% 1016.6 hPa 0 mm - 64 W/m² -
1787835797 16.11° C 88% 1016.7 hPa 0 mm - 52 W/m² -
1787835198 16.11° C 88% 1016.5 hPa 0 mm - 49 W/m² -
1787834597 15.56° C 87% 1016.4 hPa 0 mm - 44 W/m² -
1787833995 15.56° C 88% 1016.1 hPa 0 mm - 41 W/m² -
1787833396 15.56° C 89% 1016.1 hPa 0 mm - 34 W/m² -
1787832798 15° C 89% 1016 hPa 0 mm - 28 W/m² -

* Rain latest hour (hover to see other rain measurements)
** Current wind speed in m/s (hover to see current wind gust speed)